Time,TemperatureF,DewpointF,PressureIn,WindDirection,WindDirectionDegrees,WindSpeedMPH,WindSpeedGustMPH,Humidity,HourlyPrecipIn,Conditions,Clouds,dailyrainin,SoftwareType,DateUTC
2013-02-28 00:00:00,33.1,29.6,-100.00,South,187,8.1,8.3,87,-99.99,,,0.00,LWC V2.10 B1813,2013-02-28 05:00:00,
2013-02-28 00:05:00,33.1,29.6,-100.00,South,190,11.0,11.0,87,-99.99,,,0.00,LWC V2.10 B1813,2013-02-28 05:05:00,
2013-02-28 00:10:00,33.3,29.8,-100.00,SSE,166,8.1,9.2,87,-99.99,,,0.00,LWC V2.10 B1813,2013-02-28 05:10:00,
2013-02-28 00:15:00,33.3,29.5,-100.00,South,176,7.6,10.5,86,-99.99,,,0.00,LWC V2.10 B1813,2013-02-28 05:15:00,
2013-02-28 00:20:00,33.3,29.5,-100.00,SSW,193,7.6,8.7,86,-99.99,,,0.00,LWC V2.10 B1813,2013-02-28 05:20:00,
2013-02-28 00:25:00,33.3,29.2,-100.00,South,189,10.5,12.3,85,-99.99,,,0.00,LWC V2.10 B1813,2013-02-28 05:25:00,
2013-02-28 00:30:00,33.3,29.2,-100.00,South,179,8.7,8.7,85,-99.99,,,0.00,LWC V2.10 B1813,2013-02-28 05:30:00,
2013-02-28 00:35:00,33.3,29.0,-100.00,South,172,8.3,10.5,84,-99.99,,,0.00,LWC V2.10 B1813,2013-02-28 05:35:00,
2013-02-28 00:40:00,33.3,28.7,-100.00,SSW,194,13.2,15.0,83,-99.99,,,0.00,LWC V2.10 B1813,2013-02-28 05:40:00,
2013-02-28 00:45:00,33.3,28.7,-100.00,SE,145,10.1,11.0,83,-99.99,,,0.00,LWC V2.10 B1813,2013-02-28 05:45:00,
2013-02-28 00:50:00,33.3,28.4,-100.00,South,175,7.6,12.3,82,-99.99,,,0.00,LWC V2.10 B1813,2013-02-28 05:50:00,
2013-02-28 00:55:00,33.3,28.1,-100.00,South,186,7.6,8.7,81,-99.99,,,0.00,LWC V2.10 B1813,2013-02-28 05:55:00,
2013-02-28 01:00:00,33.3,28.1,-100.00,South,180,5.4,13.2,81,-99.99,,,0.00,LWC V2.10 B1813,2013-02-28 06:00:00,
2013-02-28 01:05:00,33.3,28.4,-100.00,SSE,161,8.7,10.5,82,-99.99,,,0.00,LWC V2.10 B1813,2013-02-28 06:05:00,
2013-02-28 01:10:00,33.3,28.4,-100.00,SSW,193,3.6,11.0,82,-99.99,,,0.00,LWC V2.10 B1813,2013-02-28 06:10:00,
2013-02-28 01:15:00,33.1,28.2,-100.00,South,170,6.3,8.3,82,-99.99,,,0.00,LWC V2.10 B1813,2013-02-28 06:15:00,
2013-02-28 01:20:00,33.1,28.5,-100.00,SE,141,8.3,13.2,83,-99.99,,,0.00,LWC V2.10 B1813,2013-02-28 06:20:00,
2013-02-28 01:25:00,33.1,28.5,-100.00,SSW,198,8.3,8.7,83,-99.99,,,0.00,LWC V2.10 B1813,2013-02-28 06:25:00,
2013-02-28 01:30:00,33.1,28.5,-100.00,SSE,162,12.3,12.3,83,-99.99,,,0.00,LWC V2.10 B1813,2013-02-28 06:30:00,
2013-02-28 01:35:00,33.1,28.8,-100.00,SSW,200,4.0,10.5,84,-99.99,,,0.00,LWC V2.10 B1813,2013-02-28 06:35:00,
2013-02-28 01:40:00,33.1,28.8,-100.00,SSE,151,5.8,8.3,84,-99.99,,,0.00,LWC V2.10 B1813,2013-02-28 06:40:00,
2013-02-28 01:45:00,33.1,28.8,-100.00,SSE,160,5.8,5.8,84,-99.99,,,0.00,LWC V2.10 B1813,2013-02-28 06:45:00,
2013-02-28 01:50:00,33.1,28.8,-100.00,SSE,167,7.6,8.7,84,-99.99,,,0.00,LWC V2.10 B1813,2013-02-28 06:50:00,
2013-02-28 01:55:00,33.1,28.8,-100.00,SSE,162,8.3,10.5,84,-99.99,,,0.00,LWC V2.10 B1813,2013-02-28 06:55:00,
2013-02-28 02:00:00,32.9,28.6,-100.00,South,184,8.3,9.6,84,-99.99,,,0.00,LWC V2.10 B1813,2013-02-28 07:00:00,
2013-02-28 02:05:00,32.9,28.3,-100.00,SSW,202,8.7,15.0,83,-99.99,,,0.00,LWC V2.10 B1813,2013-02-28 07:05:00,
2013-02-28 02:10:00,33.1,27.9,-100.00,SSW,198,6.3,13.6,81,-99.99,,,0.00,LWC V2.10 B1813,2013-02-28 07:10:00,
2013-02-28 02:15:00,32.9,28.0,-100.00,South,181,11.0,11.0,82,-99.99,,,0.00,LWC V2.10 B1813,2013-02-28 07:15:00,
2013-02-28 02:20:00,33.1,27.9,-100.00,South,191,8.1,10.5,81,-99.99,,,0.00,LWC V2.10 B1813,2013-02-28 07:20:00,
2013-02-28 02:25:00,33.1,27.9,-100.00,South,187,6.3,10.1,81,-99.99,,,0.00,LWC V2.10 B1813,2013-02-28 07:25:00,
2013-02-28 02:30:00,33.1,27.6,-100.00,SSE,164,8.1,10.5,80,-99.99,,,0.00,LWC V2.10 B1813,2013-02-28 07:30:00,
2013-02-28 02:32:00,32.9,27.4,-100.00,SSE,147,8.7,10.5,80,-99.99,,,0.00,LWC V2.10 B1813,2013-02-28 07:32:00,
2013-02-28 02:37:00,33.1,27.3,-100.00,South,178,10.1,17.0,79,-99.99,,,0.00,LWC V2.10 B1813,2013-02-28 07:37:00,
2013-02-28 02:42:00,33.1,27.0,-100.00,SSW,196,12.8,13.6,78,-99.99,,,0.00,LWC V2.10 B1813,2013-02-28 07:42:00,
2013-02-28 02:47:00,33.1,27.0,-100.00,SSE,159,8.1,10.1,78,-99.99,,,0.00,LWC V2.10 B1813,2013-02-28 07:47:00,
2013-02-28 02:52:00,32.9,26.8,-100.00,SSE,147,8.1,12.3,78,-99.99,,,0.00,LWC V2.10 B1813,2013-02-28 07:52:00,
2013-02-28 02:57:00,32.9,26.8,-100.00,SSW,196,5.8,9.6,78,-99.99,,,0.00,LWC V2.10 B1813,2013-02-28 07:57:00,
2013-02-28 03:02:00,32.9,27.1,-100.00,SSW,192,5.8,8.3,79,-99.99,,,0.00,LWC V2.10 B1813,2013-02-28 08:02:00,
2013-02-28 03:03:00,32.7,26.9,-100.00,South,173,6.3,6.7,79,-99.99,,,0.00,LWC V2.10 B1813,2013-02-28 08:03:00,
2013-02-28 03:08:00,32.7,26.9,-100.00,SSE,161,7.6,7.6,79,-99.99,,,0.00,LWC V2.10 B1813,2013-02-28 08:08:00,
2013-02-28 03:13:00,32.7,27.2,-100.00,South,184,8.3,10.1,80,-99.99,,,0.00,LWC V2.10 B1813,2013-02-28 08:13:00,
2013-02-28 03:18:00,32.7,27.2,-100.00,SW,225,5.8,7.6,80,-99.99,,,0.00,LWC V2.10 B1813,2013-02-28 08:18:00,
2013-02-28 03:23:00,32.5,27.7,-100.00,SW,220,5.4,8.7,82,-99.99,,,0.00,LWC V2.10 B1813,2013-02-28 08:23:00,
2013-02-28 03:28:00,32.4,27.8,-100.00,SSW,194,6.3,11.0,83,-99.99,,,0.00,LWC V2.10 B1813,2013-02-28 08:28:00,
2013-02-28 03:33:00,32.2,27.6,-100.00,South,172,12.8,12.8,83,-99.99,,,0.00,LWC V2.10 B1813,2013-02-28 08:33:00,
2013-02-28 03:38:00,32.5,26.5,-100.00,SSW,203,10.1,10.1,78,-99.99,,,0.00,LWC V2.10 B1813,2013-02-28 08:38:00,
2013-02-28 03:43:00,32.5,26.5,-100.00,SSW,196,10.5,10.5,78,-99.99,,,0.00,LWC V2.10 B1813,2013-02-28 08:43:00,
2013-02-28 03:48:00,32.4,26.6,-100.00,SSW,193,8.3,8.3,79,-99.99,,,0.00,LWC V2.10 B1813,2013-02-28 08:48:00,
2013-02-28 03:50:00,32.4,26.6,-100.00,SE,144,5.8,11.0,79,-99.99,,,0.00,LWC V2.10 B1813,2013-02-28 08:50:00,
2013-02-28 03:55:00,32.2,26.7,-100.00,SSW,209,8.7,10.5,80,-99.99,,,0.00,LWC V2.10 B1813,2013-02-28 08:55:00,
2013-02-28 04:00:00,32.2,26.7,-100.00,SSW,197,8.3,10.1,80,-99.99,,,0.00,LWC V2.10 B1813,2013-02-28 09:00:00,
2013-02-28 04:05:00,32.2,26.7,-100.00,SSE,164,8.3,10.5,80,-99.99,,,0.00,LWC V2.10 B1813,2013-02-28 09:05:00,
2013-02-28 04:10:00,32.0,27.1,-100.00,South,173,7.6,8.7,82,-99.99,,,0.00,LWC V2.10 B1813,2013-02-28 09:10:00,
2013-02-28 04:15:00,31.8,27.3,-100.00,SSW,198,7.6,11.0,83,-99.99,,,0.00,LWC V2.10 B1813,2013-02-28 09:15:00,
2013-02-28 04:20:00,31.8,27.5,-100.00,South,183,5.8,8.1,84,-99.99,,,0.00,LWC V2.10 B1813,2013-02-28 09:20:00,
2013-02-28 04:25:00,31.8,27.5,-100.00,SSW,192,6.3,8.1,84,-99.99,,,0.00,LWC V2.10 B1813,2013-02-28 09:25:00,
2013-02-28 04:30:00,31.8,27.8,-100.00,SSE,159,5.8,10.5,85,-99.99,,,0.00,LWC V2.10 B1813,2013-02-28 09:30:00,
2013-02-28 04:35:00,31.8,27.8,-100.00,South,180,7.6,7.6,85,-99.99,,,0.00,LWC V2.10 B1813,2013-02-28 09:35:00,
2013-02-28 04:40:00,31.6,27.9,-100.00,SSE,163,5.8,8.7,86,-99.99,,,0.00,LWC V2.10 B1813,2013-02-28 09:40:00,
2013-02-28 04:45:00,31.6,27.9,-100.00,South,186,8.1,11.0,86,-99.99,,,0.00,LWC V2.10 B1813,2013-02-28 09:45:00,
2013-02-28 04:50:00,31.6,27.7,-100.00,South,191,11.0,11.0,85,-99.99,,,0.00,LWC V2.10 B1813,2013-02-28 09:50:00,
2013-02-28 04:55:00,31.6,27.7,-100.00,SSE,157,6.3,13.2,85,-99.99,,,0.00,LWC V2.10 B1813,2013-02-28 09:55:00,
2013-02-28 05:00:00,31.6,27.7,-100.00,SSE,154,8.3,11.0,85,-99.99,,,0.00,LWC V2.10 B1813,2013-02-28 10:00:00,
2013-02-28 05:05:00,31.6,27.7,-100.00,South,180,8.3,8.7,85,-99.99,,,0.00,LWC V2.10 B1813,2013-02-28 10:05:00,
2013-02-28 05:10:00,31.6,27.7,-100.00,South,189,8.7,10.1,85,-99.99,,,0.00,LWC V2.10 B1813,2013-02-28 10:10:00,
2013-02-28 05:15:00,31.6,27.7,-100.00,South,190,4.0,10.1,85,-99.99,,,0.00,LWC V2.10 B1813,2013-02-28 10:15:00,
2013-02-28 05:20:00,31.5,27.5,-100.00,South,179,6.3,12.3,85,-99.99,,,0.00,LWC V2.10 B1813,2013-02-28 10:20:00,
2013-02-28 05:25:00,31.5,27.5,-100.00,South,177,6.3,8.3,85,-99.99,,,0.00,LWC V2.10 B1813,2013-02-28 10:25:00,
2013-02-28 05:30:00,31.5,27.5,-100.00,South,170,8.7,10.1,85,-99.99,,,0.00,LWC V2.10 B1813,2013-02-28 10:30:00,
2013-02-28 05:35:00,31.5,27.5,-100.00,South,175,5.8,7.6,85,-99.99,,,0.00,LWC V2.10 B1813,2013-02-28 10:35:00,
2013-02-28 05:40:00,31.3,27.6,-100.00,SSE,167,6.3,10.5,86,-99.99,,,0.00,LWC V2.10 B1813,2013-02-28 10:40:00,
2013-02-28 05:45:00,31.3,27.6,-100.00,SSE,157,5.8,8.7,86,-99.99,,,0.00,LWC V2.10 B1813,2013-02-28 10:45:00,
2013-02-28 05:50:00,31.5,27.5,-100.00,SSE,165,5.8,8.3,85,-99.99,,,0.00,LWC V2.10 B1813,2013-02-28 10:50:00,
2013-02-28 05:55:00,31.5,27.5,-100.00,SSE,168,5.8,8.1,85,-99.99,,,0.00,LWC V2.10 B1813,2013-02-28 10:55:00,
2013-02-28 06:00:00,31.5,27.5,-100.00,South,171,8.7,10.5,85,-99.99,,,0.00,LWC V2.10 B1813,2013-02-28 11:00:00,
2013-02-28 06:05:00,31.5,27.5,-100.00,South,174,10.5,10.5,85,-99.99,,,0.00,LWC V2.10 B1813,2013-02-28 11:05:00,
2013-02-28 06:10:00,31.5,27.2,-100.00,SSW,199,11.0,11.0,84,-99.99,,,0.00,LWC V2.10 B1813,2013-02-28 11:10:00,
2013-02-28 06:15:00,31.5,27.2,-100.00,South,181,5.4,8.3,84,-99.99,,,0.00,LWC V2.10 B1813,2013-02-28 11:15:00,
2013-02-28 06:20:00,31.5,27.5,-100.00,South,171,8.7,8.7,85,-99.99,,,0.00,LWC V2.10 B1813,2013-02-28 11:20:00,
2013-02-28 06:26:00,31.5,27.2,-100.00,SSW,212,7.6,10.1,84,-99.99,,,0.00,LWC V2.10 B1813,2013-02-28 11:26:00,
2013-02-28 06:31:00,31.6,27.4,-100.00,South,188,11.0,11.0,84,-99.99,,,0.00,LWC V2.10 B1813,2013-02-28 11:31:00,
2013-02-28 06:36:00,31.6,27.4,-100.00,South,185,12.3,12.3,84,-99.99,,,0.00,LWC V2.10 B1813,2013-02-28 11:36:00,
2013-02-28 06:41:00,31.6,27.4,-100.00,South,169,8.1,10.1,84,-99.99,,,0.00,LWC V2.10 B1813,2013-02-28 11:41:00,
2013-02-28 06:46:00,31.6,27.1,-100.00,South,176,8.7,11.4,83,-99.99,,,0.00,LWC V2.10 B1813,2013-02-28 11:46:00,
2013-02-28 06:51:00,31.8,27.3,-100.00,SSW,192,9.6,12.3,83,-99.99,,,0.00,LWC V2.10 B1813,2013-02-28 11:51:00,
2013-02-28 06:56:00,31.8,27.0,-100.00,South,170,8.7,15.0,82,-99.99,,,0.00,LWC V2.10 B1813,2013-02-28 11:56:00,
2013-02-28 07:01:00,31.8,27.0,-100.00,South,169,11.0,11.0,82,-99.99,,,0.00,LWC V2.10 B1813,2013-02-28 12:01:00,
2013-02-28 07:06:00,31.8,27.0,-100.00,SSW,194,5.4,12.3,82,-99.99,,,0.00,LWC V2.10 B1813,2013-02-28 12:06:00,
2013-02-28 07:11:00,31.8,27.3,-100.00,SSW,195,10.5,10.5,83,-99.99,,,0.00,LWC V2.10 B1813,2013-02-28 12:11:00,
2013-02-28 07:16:00,31.8,27.0,-100.00,SSE,167,8.1,8.1,82,-99.99,,,0.00,LWC V2.10 B1813,2013-02-28 12:16:00,
2013-02-28 07:21:00,31.8,27.0,-100.00,South,182,8.7,15.4,82,-99.99,,,0.00,LWC V2.10 B1813,2013-02-28 12:21:00,
2013-02-28 07:26:00,31.8,27.0,-100.00,South,185,11.0,11.0,82,-99.99,,,0.00,LWC V2.10 B1813,2013-02-28 12:26:00,
2013-02-28 07:31:00,31.8,27.0,-100.00,SSW,196,12.3,12.8,82,-99.99,,,0.00,LWC V2.10 B1813,2013-02-28 12:31:00,
2013-02-28 07:36:00,31.8,27.0,-100.00,South,184,6.3,11.0,82,-99.99,,,0.00,LWC V2.10 B1813,2013-02-28 12:36:00,
2013-02-28 07:41:00,31.8,27.3,-100.00,SSW,199,8.3,8.3,83,-99.99,,,0.00,LWC V2.10 B1813,2013-02-28 12:41:00,
2013-02-28 07:46:00,31.8,27.5,-100.00,SE,145,8.1,9.2,84,-99.99,,,0.00,LWC V2.10 B1813,2013-02-28 12:46:00,
2013-02-28 07:51:00,31.6,27.7,-100.00,SSW,192,8.1,9.6,85,-99.99,,,0.00,LWC V2.10 B1813,2013-02-28 12:51:00,
2013-02-28 07:56:00,31.8,27.8,-100.00,SSW,192,6.3,11.0,85,-99.99,,,0.00,LWC V2.10 B1813,2013-02-28 12:56:00,
2013-02-28 08:01:00,31.8,27.8,-100.00,South,179,7.2,11.0,85,-99.99,,,0.00,LWC V2.10 B1813,2013-02-28 13:01:00,
2013-02-28 08:06:00,31.8,27.8,-100.00,SSW,195,5.4,12.8,85,-99.99,,,0.00,LWC V2.10 B1813,2013-02-28 13:06:00,
2013-02-28 08:11:00,31.8,27.8,-100.00,South,187,8.3,10.1,85,-99.99,,,0.00,LWC V2.10 B1813,2013-02-28 13:11:00,
2013-02-28 08:16:00,31.8,27.8,-100.00,SSE,164,13.2,15.0,85,-99.99,,,0.00,LWC V2.10 B1813,2013-02-28 13:16:00,
2013-02-28 08:21:00,31.8,27.8,-100.00,SSE,152,13.2,13.2,85,-99.99,,,0.00,LWC V2.10 B1813,2013-02-28 13:21:00,
2013-02-28 08:26:00,31.8,28.1,-100.00,SSW,196,10.1,15.4,86,-99.99,,,0.00,LWC V2.10 B1813,2013-02-28 13:26:00,
2013-02-28 08:31:00,32.0,28.3,-100.00,SSW,200,8.7,12.8,86,-99.99,,,0.00,LWC V2.10 B1813,2013-02-28 13:31:00,
2013-02-28 08:36:00,32.0,28.3,-100.00,South,172,8.3,8.3,86,-99.99,,,0.00,LWC V2.10 B1813,2013-02-28 13:36:00,
2013-02-28 08:41:00,32.0,28.6,-100.00,SSW,199,9.6,9.6,87,-99.99,,,0.00,LWC V2.10 B1813,2013-02-28 13:41:00,
2013-02-28 08:46:00,31.8,28.4,-100.00,SSW,202,14.5,15.0,87,-99.99,,,0.00,LWC V2.10 B1813,2013-02-28 13:46:00,
2013-02-28 08:51:00,32.0,28.6,-100.00,SSW,197,11.0,11.0,87,-99.99,,,0.00,LWC V2.10 B1813,2013-02-28 13:51:00,
2013-02-28 08:56:00,32.0,28.3,-100.00,South,184,8.1,12.8,86,-99.99,,,0.00,LWC V2.10 B1813,2013-02-28 13:56:00,
2013-02-28 09:01:00,32.2,28.5,-100.00,SSW,192,8.7,16.3,86,-99.99,,,0.00,LWC V2.10 B1813,2013-02-28 14:01:00,
2013-02-28 09:06:00,32.2,28.5,-100.00,SSW,213,8.7,11.4,86,-99.99,,,0.00,LWC V2.10 B1813,2013-02-28 14:06:00,
2013-02-28 09:11:00,32.2,28.5,-100.00,SSW,201,9.6,10.5,86,-99.99,,,0.00,LWC V2.10 B1813,2013-02-28 14:11:00,
2013-02-28 09:16:00,32.2,28.2,-100.00,SSE,154,9.6,10.5,85,-99.99,,,0.00,LWC V2.10 B1813,2013-02-28 14:16:00,
2013-02-28 09:21:00,32.4,28.4,-100.00,South,185,10.1,10.1,85,-99.99,,,0.00,LWC V2.10 B1813,2013-02-28 14:21:00,
2013-02-28 09:26:00,32.4,28.4,-100.00,South,180,7.6,13.2,85,-99.99,,,0.00,LWC V2.10 B1813,2013-02-28 14:26:00,
2013-02-28 09:31:00,32.4,28.4,-100.00,South,171,8.7,10.1,85,-99.99,,,0.00,LWC V2.10 B1813,2013-02-28 14:31:00,
2013-02-28 09:36:00,32.4,28.4,-100.00,SSE,168,8.3,13.2,85,-99.99,,,0.00,LWC V2.10 B1813,2013-02-28 14:36:00,
2013-02-28 09:41:00,32.4,28.4,-100.00,South,177,8.1,12.8,85,-99.99,,,0.00,LWC V2.10 B1813,2013-02-28 14:41:00,
2013-02-28 09:46:00,32.5,28.5,-100.00,SSW,200,8.1,8.1,85,-99.99,,,0.00,LWC V2.10 B1813,2013-02-28 14:46:00,
2013-02-28 09:51:00,32.4,28.4,-100.00,South,189,8.3,11.0,85,-99.99,,,0.00,LWC V2.10 B1813,2013-02-28 14:51:00,
2013-02-28 09:56:00,32.5,28.5,-100.00,SSW,207,11.0,12.3,85,-99.99,,,0.00,LWC V2.10 B1813,2013-02-28 14:56:00,
2013-02-28 10:01:00,32.5,28.5,-100.00,SSW,203,8.7,13.6,85,-99.99,,,0.00,LWC V2.10 B1813,2013-02-28 15:01:00,
2013-02-28 10:06:00,32.5,28.5,-100.00,SSE,168,11.0,11.0,85,-99.99,,,0.00,LWC V2.10 B1813,2013-02-28 15:06:00,
2013-02-28 10:11:00,32.5,28.8,-100.00,SSE,165,8.3,12.3,86,-99.99,,,0.00,LWC V2.10 B1813,2013-02-28 15:11:00,
2013-02-28 10:16:00,32.5,28.8,-100.00,SSE,155,7.6,13.2,86,-99.99,,,0.00,LWC V2.10 B1813,2013-02-28 15:16:00,
2013-02-28 10:21:00,32.5,29.1,-100.00,SSW,192,7.6,10.1,87,-99.99,,,0.00,LWC V2.10 B1813,2013-02-28 15:21:00,
2013-02-28 10:26:00,32.4,29.2,-100.00,South,185,8.7,13.2,88,-99.99,,,0.00,LWC V2.10 B1813,2013-02-28 15:26:00,
2013-02-28 10:31:00,32.4,29.2,-100.00,SSW,201,8.3,13.2,88,-99.99,,,0.00,LWC V2.10 B1813,2013-02-28 15:31:00,
2013-02-28 10:36:00,32.5,29.4,-100.00,South,189,7.6,12.8,88,-99.99,,,0.00,LWC V2.10 B1813,2013-02-28 15:36:00,
2013-02-28 10:41:00,32.5,29.7,-100.00,South,190,7.2,12.8,89,-99.99,,,0.00,LWC V2.10 B1813,2013-02-28 15:41:00,
2013-02-28 10:46:00,32.5,29.7,-100.00,SSW,203,8.7,11.0,89,-99.99,,,0.00,LWC V2.10 B1813,2013-02-28 15:46:00,
2013-02-28 10:51:00,32.5,29.4,-100.00,SSW,193,7.6,8.3,88,-99.99,,,0.00,LWC V2.10 B1813,2013-02-28 15:51:00,
2013-02-28 10:56:00,32.5,29.4,-100.00,SW,216,6.3,9.2,88,-99.99,,,0.00,LWC V2.10 B1813,2013-02-28 15:56:00,
2013-02-28 11:01:00,32.7,29.6,-100.00,South,184,8.7,13.2,88,-99.99,,,0.00,LWC V2.10 B1813,2013-02-28 16:01:00,
2013-02-28 11:06:00,32.7,29.6,-100.00,South,180,8.7,8.7,88,-99.99,,,0.00,LWC V2.10 B1813,2013-02-28 16:06:00,
2013-02-28 11:11:00,32.9,29.7,-100.00,SSW,193,8.3,8.7,88,-99.99,,,0.00,LWC V2.10 B1813,2013-02-28 16:11:00,
2013-02-28 11:16:00,32.9,29.5,-100.00,SSW,198,8.7,13.2,87,-99.99,,,0.00,LWC V2.10 B1813,2013-02-28 16:16:00,
2013-02-28 11:21:00,33.1,29.6,-100.00,SSW,205,5.8,12.3,87,-99.99,,,0.00,LWC V2.10 B1813,2013-02-28 16:21:00,
2013-02-28 11:26:00,33.3,29.8,-100.00,SSW,199,11.4,11.4,87,-99.99,,,0.00,LWC V2.10 B1813,2013-02-28 16:26:00,
2013-02-28 11:31:00,33.4,29.7,-100.00,South,175,12.8,12.8,86,-99.99,,,0.00,LWC V2.10 B1813,2013-02-28 16:31:00,
2013-02-28 11:36:00,33.6,29.9,-100.00,SSW,206,6.3,11.0,86,-99.99,,,0.00,LWC V2.10 B1813,2013-02-28 16:36:00,
2013-02-28 11:41:00,33.8,30.1,-100.00,South,172,6.3,8.1,86,-99.99,,,0.00,LWC V2.10 B1813,2013-02-28 16:41:00,
2013-02-28 11:46:00,34.0,30.0,-100.00,SSE,160,5.4,14.5,85,-99.99,,,0.00,LWC V2.10 B1813,2013-02-28 16:46:00,
2013-02-28 11:51:00,34.0,30.2,-100.00,SSW,202,11.0,15.0,86,-99.99,,,0.00,LWC V2.10 B1813,2013-02-28 16:51:00,
2013-02-28 11:56:00,34.0,30.2,-100.00,South,177,4.9,10.1,86,-99.99,,,0.00,LWC V2.10 B1813,2013-02-28 16:56:00,
2013-02-28 12:01:00,34.2,30.4,-100.00,SSW,203,6.3,8.3,86,-99.99,,,0.00,LWC V2.10 B1813,2013-02-28 17:01:00,
2013-02-28 12:06:00,34.2,30.4,-100.00,SSW,210,9.2,10.1,86,-99.99,,,0.00,LWC V2.10 B1813,2013-02-28 17:06:00,
2013-02-28 12:11:00,34.0,30.2,-100.00,SSW,196,8.1,15.4,86,-99.99,,,0.00,LWC V2.10 B1813,2013-02-28 17:11:00,
2013-02-28 12:16:00,34.0,30.2,-100.00,SSE,168,8.1,12.3,86,-99.99,,,0.00,LWC V2.10 B1813,2013-02-28 17:16:00,
2013-02-28 12:21:00,34.0,30.5,-100.00,SSW,203,8.3,8.3,87,-99.99,,,0.00,LWC V2.10 B1813,2013-02-28 17:21:00,
2013-02-28 12:26:00,34.2,30.7,-100.00,SSW,192,5.8,11.0,87,-99.99,,,0.00,LWC V2.10 B1813,2013-02-28 17:26:00,
2013-02-28 12:31:00,34.3,30.9,-100.00,SSW,209,7.6,11.0,87,-99.99,,,0.00,LWC V2.10 B1813,2013-02-28 17:31:00,
2013-02-28 12:36:00,34.5,31.3,-100.00,SSW,197,10.1,12.3,88,-99.99,,,0.00,LWC V2.10 B1813,2013-02-28 17:36:00,
2013-02-28 12:42:00,35.1,31.6,-100.00,SSE,168,7.6,10.5,87,-99.99,,,0.00,LWC V2.10 B1813,2013-02-28 17:42:00,
2013-02-28 12:47:00,35.6,32.1,-100.00,SSE,163,12.8,12.8,87,-99.99,,,0.00,LWC V2.10 B1813,2013-02-28 17:47:00,
2013-02-28 12:52:00,35.6,31.8,-100.00,South,173,10.5,10.5,86,-99.99,,,0.00,LWC V2.10 B1813,2013-02-28 17:52:00,
2013-02-28 12:57:00,35.6,31.8,-100.00,SSW,208,8.7,8.7,86,-99.99,,,0.00,LWC V2.10 B1813,2013-02-28 17:57:00,
2013-02-28 13:02:00,35.4,31.7,-100.00,SW,215,8.3,9.2,86,-99.99,,,0.00,LWC V2.10 B1813,2013-02-28 18:02:00,
2013-02-28 13:07:00,35.4,31.9,-100.00,SSW,194,6.3,11.0,87,-99.99,,,0.00,LWC V2.10 B1813,2013-02-28 18:07:00,
2013-02-28 13:12:00,35.4,31.9,-100.00,South,176,11.9,11.9,87,-99.99,,,0.00,LWC V2.10 B1813,2013-02-28 18:12:00,
2013-02-28 13:17:00,35.4,32.2,-100.00,SSW,197,10.1,11.0,88,-99.99,,,0.00,LWC V2.10 B1813,2013-02-28 18:17:00,
2013-02-28 13:22:00,35.4,32.2,-100.00,South,190,5.4,12.3,88,-99.99,,,0.00,LWC V2.10 B1813,2013-02-28 18:22:00,
2013-02-28 13:27:00,35.2,32.0,-100.00,SSE,156,4.0,10.5,88,-99.99,,,0.00,LWC V2.10 B1813,2013-02-28 18:27:00,
2013-02-28 13:32:00,35.1,31.9,-100.00,WSW,241,6.3,10.5,88,-99.99,,,0.00,LWC V2.10 B1813,2013-02-28 18:32:00,
2013-02-28 13:37:00,35.1,31.9,-100.00,West,269,5.4,13.6,88,-99.99,,,0.00,LWC V2.10 B1813,2013-02-28 18:37:00,
2013-02-28 13:42:00,35.1,32.2,-100.00,SSW,212,6.3,8.1,89,-99.99,,,0.00,LWC V2.10 B1813,2013-02-28 18:42:00,
2013-02-28 13:47:00,35.1,32.2,-100.00,South,186,7.6,11.0,89,-99.99,,,0.00,LWC V2.10 B1813,2013-02-28 18:47:00,
2013-02-28 13:52:00,35.1,32.2,-100.00,SSW,211,8.7,8.7,89,-99.99,,,0.00,LWC V2.10 B1813,2013-02-28 18:52:00,
2013-02-28 13:57:00,35.2,32.6,-100.00,WSW,253,5.4,12.3,90,-99.99,,,0.00,LWC V2.10 B1813,2013-02-28 18:57:00,
2013-02-28 14:02:00,35.2,32.6,-100.00,West,275,6.3,7.6,90,-99.99,,,0.00,LWC V2.10 B1813,2013-02-28 19:02:00,
2013-02-28 14:07:00,35.2,32.6,-100.00,South,190,8.7,11.0,90,-99.99,,,0.00,LWC V2.10 B1813,2013-02-28 19:07:00,
2013-02-28 14:12:00,35.2,32.6,-100.00,SSW,208,8.3,11.9,90,-99.99,,,0.00,LWC V2.10 B1813,2013-02-28 19:12:00,
2013-02-28 14:17:00,35.4,32.5,-100.00,WSW,239,8.1,8.7,89,-99.99,,,0.00,LWC V2.10 B1813,2013-02-28 19:17:00,
2013-02-28 14:22:00,35.4,32.2,-100.00,SSW,195,11.4,11.9,88,-99.99,,,0.00,LWC V2.10 B1813,2013-02-28 19:22:00,
2013-02-28 14:27:00,35.4,31.9,-100.00,WSW,254,5.8,10.1,87,-99.99,,,0.00,LWC V2.10 B1813,2013-02-28 19:27:00,
2013-02-28 14:32:00,35.4,31.9,-100.00,SW,222,8.1,8.1,87,-99.99,,,0.00,LWC V2.10 B1813,2013-02-28 19:32:00,
2013-02-28 14:37:00,35.6,31.5,-100.00,SW,229,11.0,11.0,85,-99.99,,,0.00,LWC V2.10 B1813,2013-02-28 19:37:00,
2013-02-28 14:42:00,35.6,31.3,-100.00,SSW,205,10.1,10.1,84,-99.99,,,0.00,LWC V2.10 B1813,2013-02-28 19:42:00,
2013-02-28 14:47:00,35.8,31.4,-100.00,SSW,206,10.1,10.1,84,-99.99,,,0.00,LWC V2.10 B1813,2013-02-28 19:47:00,
2013-02-28 14:52:00,35.4,31.4,-100.00,South,187,8.1,13.2,85,-99.99,,,0.00,LWC V2.10 B1813,2013-02-28 19:52:00,
2013-02-28 14:57:00,35.1,31.0,-100.00,WSW,237,8.3,13.6,85,-99.99,,,0.00,LWC V2.10 B1813,2013-02-28 19:57:00,
2013-02-28 15:02:00,35.2,31.5,-100.00,WSW,252,7.6,10.1,86,-99.99,,,0.00,LWC V2.10 B1813,2013-02-28 20:02:00,
2013-02-28 15:07:00,35.2,31.8,-100.00,WSW,246,6.3,11.0,87,-99.99,,,0.00,LWC V2.10 B1813,2013-02-28 20:07:00,
2013-02-28 15:12:00,35.2,31.8,-100.00,WSW,243,6.3,8.1,87,-99.99,,,0.00,LWC V2.10 B1813,2013-02-28 20:12:00,
2013-02-28 15:17:00,35.4,31.7,-100.00,SSW,212,5.4,10.1,86,-99.99,,,0.00,LWC V2.10 B1813,2013-02-28 20:17:00,
2013-02-28 15:22:00,35.6,31.8,-100.00,SSW,210,5.4,8.3,86,-99.99,,,0.00,LWC V2.10 B1813,2013-02-28 20:22:00,
2013-02-28 15:27:00,35.8,32.0,-100.00,SW,224,8.1,8.1,86,-99.99,,,0.00,LWC V2.10 B1813,2013-02-28 20:27:00,
2013-02-28 15:32:00,35.8,32.0,-100.00,SW,224,5.8,7.6,86,-99.99,,,0.00,LWC V2.10 B1813,2013-02-28 20:32:00,
2013-02-28 15:37:00,35.8,31.7,-100.00,SW,232,3.6,10.5,85,-99.99,,,0.00,LWC V2.10 B1813,2013-02-28 20:37:00,
2013-02-28 15:42:00,35.6,31.5,-100.00,SW,225,5.8,7.6,85,-99.99,,,0.00,LWC V2.10 B1813,2013-02-28 20:42:00,
2013-02-28 15:47:00,35.6,31.3,-100.00,SW,227,5.8,6.3,84,-99.99,,,0.00,LWC V2.10 B1813,2013-02-28 20:47:00,
2013-02-28 15:52:00,35.6,31.3,-100.00,SW,216,3.1,5.8,84,-99.99,,,0.00,LWC V2.10 B1813,2013-02-28 20:52:00,
2013-02-28 15:57:00,35.8,31.4,-100.00,SW,235,8.1,8.1,84,-99.99,,,0.00,LWC V2.10 B1813,2013-02-28 20:57:00,
2013-02-28 16:02:00,35.6,31.3,-100.00,WSW,258,6.3,6.3,84,-99.99,,,0.00,LWC V2.10 B1813,2013-02-28 21:02:00,
2013-02-28 16:07:00,35.6,31.3,-100.00,West,266,6.3,8.3,84,-99.99,,,0.00,LWC V2.10 B1813,2013-02-28 21:07:00,
2013-02-28 16:12:00,35.6,31.0,-100.00,West,275,3.6,7.6,83,-99.99,,,0.00,LWC V2.10 B1813,2013-02-28 21:12:00,
2013-02-28 16:17:00,35.6,31.0,-100.00,West,268,4.0,8.3,83,-99.99,,,0.00,LWC V2.10 B1813,2013-02-28 21:17:00,
2013-02-28 16:22:00,35.6,31.0,-100.00,West,265,5.8,6.3,83,-99.99,,,0.00,LWC V2.10 B1813,2013-02-28 21:22:00,
2013-02-28 16:27:00,35.6,31.0,-100.00,West,262,7.6,10.1,83,-99.99,,,0.00,LWC V2.10 B1813,2013-02-28 21:27:00,
2013-02-28 16:32:00,35.6,31.0,-100.00,SSW,211,4.9,8.7,83,-99.99,,,0.00,LWC V2.10 B1813,2013-02-28 21:32:00,
2013-02-28 16:37:00,35.4,31.4,-100.00,West,271,6.3,7.6,85,-99.99,,,0.00,LWC V2.10 B1813,2013-02-28 21:37:00,
2013-02-28 16:42:00,35.4,31.7,-100.00,NW,311,5.4,7.6,86,-99.99,,,0.00,LWC V2.10 B1813,2013-02-28 21:42:00,
2013-02-28 16:47:00,35.2,31.8,-100.00,WSW,246,6.3,8.7,87,-99.99,,,0.00,LWC V2.10 B1813,2013-02-28 21:47:00,
2013-02-28 16:52:00,35.4,32.2,-100.00,West,262,4.9,7.6,88,-99.99,,,0.00,LWC V2.10 B1813,2013-02-28 21:52:00,
2013-02-28 16:57:00,35.2,32.0,-100.00,SSW,213,2.7,7.6,88,-99.99,,,0.00,LWC V2.10 B1813,2013-02-28 21:57:00,
2013-02-28 17:02:00,35.4,32.2,-100.00,South,191,4.0,6.3,88,-99.99,,,0.00,LWC V2.10 B1813,2013-02-28 22:02:00,
2013-02-28 17:07:00,35.2,32.3,-100.00,SSW,212,6.3,8.7,89,-99.99,,,0.00,LWC V2.10 B1813,2013-02-28 22:07:00,
2013-02-28 17:12:00,35.2,32.3,-100.00,SSW,201,5.4,10.1,89,-99.99,,,0.00,LWC V2.10 B1813,2013-02-28 22:12:00,
2013-02-28 17:17:00,35.2,32.3,-100.00,WSW,237,5.4,6.3,89,-99.99,,,0.00,LWC V2.10 B1813,2013-02-28 22:17:00,
2013-02-28 17:22:00,35.2,32.3,-100.00,SW,227,4.0,6.3,89,-99.99,,,0.00,LWC V2.10 B1813,2013-02-28 22:22:00,
2013-02-28 17:27:00,35.1,32.2,-100.00,SW,234,8.1,8.1,89,-99.99,,,0.00,LWC V2.10 B1813,2013-02-28 22:27:00,
2013-02-28 17:32:00,35.2,32.3,-100.00,SSW,204,8.1,10.5,89,-99.99,,,0.00,LWC V2.10 B1813,2013-02-28 22:32:00,
2013-02-28 17:37:00,35.2,32.3,-100.00,SW,214,3.6,6.3,89,-99.99,,,0.00,LWC V2.10 B1813,2013-02-28 22:37:00,
2013-02-28 17:42:00,35.2,32.3,-100.00,SSW,208,3.6,6.3,89,-99.99,,,0.00,LWC V2.10 B1813,2013-02-28 22:42:00,
2013-02-28 17:47:00,35.2,32.3,-100.00,SW,228,5.4,8.3,89,-99.99,,,0.00,LWC V2.10 B1813,2013-02-28 22:47:00,
2013-02-28 17:52:00,35.2,32.3,-100.00,SW,218,4.9,6.3,89,-99.99,,,0.00,LWC V2.10 B1813,2013-02-28 22:52:00,
2013-02-28 17:57:00,35.2,32.3,-100.00,South,188,6.3,6.3,89,-99.99,,,0.00,LWC V2.10 B1813,2013-02-28 22:57:00,
2013-02-28 18:02:00,35.2,32.0,-100.00,SSW,212,4.9,10.5,88,-99.99,,,0.00,LWC V2.10 B1813,2013-02-28 23:02:00,
2013-02-28 18:07:00,35.2,32.3,-100.00,SW,235,5.4,5.8,89,-99.99,,,0.00,LWC V2.10 B1813,2013-02-28 23:07:00,
2013-02-28 18:12:00,35.2,32.3,-100.00,SW,222,3.6,6.3,89,-99.99,,,0.00,LWC V2.10 B1813,2013-02-28 23:12:00,
2013-02-28 18:17:00,35.2,32.3,-100.00,SSW,201,3.6,7.6,89,-99.99,,,0.00,LWC V2.10 B1813,2013-02-28 23:17:00,
2013-02-28 18:22:00,35.1,32.2,-100.00,SW,218,5.8,9.6,89,-99.99,,,0.00,LWC V2.10 B1813,2013-02-28 23:22:00,
2013-02-28 18:27:00,35.1,32.2,-100.00,SSE,161,2.7,8.7,89,-99.99,,,0.00,LWC V2.10 B1813,2013-02-28 23:27:00,
2013-02-28 18:32:00,35.1,32.4,-100.00,SW,220,6.3,8.3,90,-99.99,,,0.00,LWC V2.10 B1813,2013-02-28 23:32:00,
2013-02-28 18:37:00,35.1,32.4,-100.00,SSW,198,3.6,8.7,90,-99.99,,,0.00,LWC V2.10 B1813,2013-02-28 23:37:00,
2013-02-28 18:42:00,34.9,32.5,-100.00,South,187,4.0,8.7,91,-99.99,,,0.00,LWC V2.10 B1813,2013-02-28 23:42:00,
2013-02-28 18:47:00,34.9,32.5,-100.00,SW,232,5.8,8.3,91,-99.99,,,0.00,LWC V2.10 B1813,2013-02-28 23:47:00,
2013-02-28 18:52:00,34.2,32.1,-100.00,West,273,8.3,8.3,92,-99.99,,,0.00,LWC V2.10 B1813,2013-02-28 23:52:00,
2013-02-28 18:57:00,33.8,31.7,-100.00,SW,229,5.4,7.6,92,-99.99,,,0.00,LWC V2.10 B1813,2013-02-28 23:57:00,
2013-02-28 19:02:00,33.8,31.7,-100.00,WSW,256,4.0,5.4,92,-99.99,,,0.00,LWC V2.10 B1813,2013-03-01 00:02:00,
2013-02-28 19:07:00,33.8,31.7,-100.00,WSW,238,4.0,8.3,92,-99.99,,,0.00,LWC V2.10 B1813,2013-03-01 00:07:00,
2013-02-28 19:13:00,33.8,31.7,-100.00,SSW,209,6.3,6.3,92,-99.99,,,0.00,LWC V2.10 B1813,2013-03-01 00:13:00,
2013-02-28 19:18:00,34.0,32.2,-100.00,SW,226,5.8,8.1,93,-99.99,,,0.00,LWC V2.10 B1813,2013-03-01 00:18:00,
2013-02-28 19:23:00,34.0,32.2,-100.00,SW,226,2.2,5.8,93,-99.99,,,0.00,LWC V2.10 B1813,2013-03-01 00:23:00,
2013-02-28 19:28:00,34.0,32.2,-100.00,SW,232,5.8,5.8,93,-99.99,,,0.00,LWC V2.10 B1813,2013-03-01 00:28:00,
2013-02-28 19:33:00,34.0,32.2,-100.00,SW,226,6.3,8.1,93,-99.99,,,0.00,LWC V2.10 B1813,2013-03-01 00:33:00,
2013-02-28 19:38:00,34.0,32.4,-100.00,WSW,244,4.0,7.6,94,-99.99,,,0.00,LWC V2.10 B1813,2013-03-01 00:38:00,
2013-02-28 19:43:00,34.2,32.6,-100.00,South,188,4.0,4.9,94,-99.99,,,0.00,LWC V2.10 B1813,2013-03-01 00:43:00,
2013-02-28 19:48:00,34.2,32.6,-100.00,WSW,247,5.4,6.3,94,-99.99,,,0.00,LWC V2.10 B1813,2013-03-01 00:48:00,
2013-02-28 19:53:00,34.3,32.8,-100.00,South,172,3.6,5.8,94,-99.99,,,0.00,LWC V2.10 B1813,2013-03-01 00:53:00,
2013-02-28 19:58:00,34.3,32.8,-100.00,SSW,201,3.6,8.7,94,-99.99,,,0.00,LWC V2.10 B1813,2013-03-01 00:58:00,
2013-02-28 20:03:00,34.3,32.8,-100.00,WSW,239,6.3,8.3,94,-99.99,,,0.00,LWC V2.10 B1813,2013-03-01 01:03:00,
2013-02-28 20:08:00,34.3,33.1,-100.00,WSW,241,5.8,14.5,95,-99.99,,,0.00,LWC V2.10 B1813,2013-03-01 01:08:00,
2013-02-28 20:13:00,34.3,33.1,-100.00,SW,225,5.8,8.7,95,-99.99,,,0.00,LWC V2.10 B1813,2013-03-01 01:13:00,
2013-02-28 20:18:00,34.3,33.1,-100.00,WSW,253,4.0,8.7,95,-99.99,,,0.00,LWC V2.10 B1813,2013-03-01 01:18:00,
2013-02-28 20:23:00,34.3,33.1,-100.00,West,262,5.8,8.7,95,-99.99,,,0.00,LWC V2.10 B1813,2013-03-01 01:23:00,
2013-02-28 20:28:00,34.0,32.4,-100.00,SW,230,7.6,7.6,94,-99.99,,,0.00,LWC V2.10 B1813,2013-03-01 01:28:00,
2013-02-28 20:33:00,34.0,32.4,-100.00,West,260,5.8,7.6,94,-99.99,,,0.00,LWC V2.10 B1813,2013-03-01 01:33:00,
2013-02-28 20:38:00,33.8,32.3,-100.00,WNW,282,5.8,6.3,94,-99.99,,,0.00,LWC V2.10 B1813,2013-03-01 01:38:00,
2013-02-28 20:43:00,33.6,32.1,-100.00,WSW,239,3.6,6.3,94,-99.99,,,0.00,LWC V2.10 B1813,2013-03-01 01:43:00,
2013-02-28 20:48:00,33.4,31.9,-100.00,West,279,6.3,6.3,94,-99.99,,,0.00,LWC V2.10 B1813,2013-03-01 01:48:00,
2013-02-28 20:53:00,33.4,31.9,-100.00,SSW,204,5.8,6.3,94,-99.99,,,0.00,LWC V2.10 B1813,2013-03-01 01:53:00,
2013-02-28 20:58:00,33.3,32.0,-100.00,West,281,3.1,5.8,95,-99.99,,,0.00,LWC V2.10 B1813,2013-03-01 01:58:00,
2013-02-28 21:03:00,33.3,32.0,-100.00,WNW,291,2.7,4.9,95,-99.99,,,0.00,LWC V2.10 B1813,2013-03-01 02:03:00,
2013-02-28 21:08:00,33.3,32.0,-100.00,WNW,287,4.9,5.4,95,-99.99,,,0.00,LWC V2.10 B1813,2013-03-01 02:08:00,
2013-02-28 21:13:00,33.3,32.0,-100.00,WNW,284,4.0,6.3,95,-99.99,,,0.00,LWC V2.10 B1813,2013-03-01 02:13:00,
2013-02-28 21:18:00,33.3,32.0,-100.00,NW,317,2.7,8.1,95,-99.99,,,0.00,LWC V2.10 B1813,2013-03-01 02:18:00,
2013-02-28 21:23:00,33.3,32.0,-100.00,West,276,2.7,6.3,95,-99.99,,,0.00,LWC V2.10 B1813,2013-03-01 02:23:00,
2013-02-28 21:28:00,33.3,32.0,-100.00,NW,308,6.3,8.1,95,-99.99,,,0.00,LWC V2.10 B1813,2013-03-01 02:28:00,
2013-02-28 21:33:00,33.3,32.0,-100.00,WNW,301,6.3,6.3,95,-99.99,,,0.00,LWC V2.10 B1813,2013-03-01 02:33:00,
2013-02-28 21:38:00,33.3,32.0,-100.00,WNW,292,2.2,6.3,95,-99.99,,,0.00,LWC V2.10 B1813,2013-03-01 02:38:00,
2013-02-28 21:43:00,33.3,32.0,-100.00,West,279,2.7,6.7,95,-99.99,,,0.00,LWC V2.10 B1813,2013-03-01 02:43:00,
2013-02-28 21:48:00,33.3,32.0,-100.00,West,276,5.4,7.6,95,-99.99,,,0.00,LWC V2.10 B1813,2013-03-01 02:48:00,
2013-02-28 21:53:00,33.3,32.0,-100.00,West,280,5.8,8.3,95,-99.99,,,0.00,LWC V2.10 B1813,2013-03-01 02:53:00,
2013-02-28 21:58:00,33.3,32.0,-100.00,West,280,5.4,8.1,95,-99.99,,,0.00,LWC V2.10 B1813,2013-03-01 02:58:00,
2013-02-28 22:03:00,33.3,32.0,-100.00,West,263,6.3,6.3,95,-99.99,,,0.00,LWC V2.10 B1813,2013-03-01 03:03:00,
2013-02-28 22:08:00,33.3,32.0,-100.00,WNW,295,2.7,4.0,95,-99.99,,,0.00,LWC V2.10 B1813,2013-03-01 03:08:00,
2013-02-28 22:13:00,33.3,31.7,-100.00,NW,323,0.0,5.4,94,-99.99,,,0.00,LWC V2.10 B1813,2013-03-01 03:13:00,
2013-02-28 22:18:00,33.3,31.7,-100.00,NW,319,4.0,8.3,94,-99.99,,,0.00,LWC V2.10 B1813,2013-03-01 03:18:00,
2013-02-28 22:23:00,33.3,31.7,-100.00,NW,316,4.0,6.3,94,-99.99,,,0.00,LWC V2.10 B1813,2013-03-01 03:23:00,
2013-02-28 22:28:00,33.3,31.5,-100.00,West,275,2.2,3.6,93,-99.99,,,0.00,LWC V2.10 B1813,2013-03-01 03:28:00,
2013-02-28 22:33:00,33.3,31.2,-100.00,West,278,4.9,4.9,92,-99.99,,,0.00,LWC V2.10 B1813,2013-03-01 03:33:00,
2013-02-28 22:38:00,33.3,31.2,-100.00,NNW,327,3.1,5.4,92,-99.99,,,0.00,LWC V2.10 B1813,2013-03-01 03:38:00,
2013-02-28 22:43:00,33.1,30.7,-100.00,North,349,3.1,8.1,91,-99.99,,,0.00,LWC V2.10 B1813,2013-03-01 03:43:00,
2013-02-28 22:48:00,33.3,30.6,-100.00,West,276,4.0,5.4,90,-99.99,,,0.00,LWC V2.10 B1813,2013-03-01 03:48:00,
2013-02-28 22:53:00,33.3,30.4,-100.00,West,274,5.4,8.7,89,-99.99,,,0.00,LWC V2.10 B1813,2013-03-01 03:53:00,
2013-02-28 22:58:00,33.3,29.8,-100.00,WNW,282,5.8,8.3,87,-99.99,,,0.00,LWC V2.10 B1813,2013-03-01 03:58:00,
2013-02-28 23:03:00,33.3,29.8,-100.00,WNW,302,2.7,6.3,87,-99.99,,,0.00,LWC V2.10 B1813,2013-03-01 04:03:00,
2013-02-28 23:08:00,33.3,29.8,-100.00,WNW,290,3.6,5.8,87,-99.99,,,0.00,LWC V2.10 B1813,2013-03-01 04:08:00,
2013-02-28 23:13:00,33.3,29.8,-100.00,West,278,0.0,4.5,87,-99.99,,,0.00,LWC V2.10 B1813,2013-03-01 04:13:00,
2013-02-28 23:18:00,33.3,29.8,-100.00,WNW,286,0.0,0.0,87,-99.99,,,0.00,LWC V2.10 B1813,2013-03-01 04:18:00,
2013-02-28 23:23:00,33.3,29.5,-100.00,NW,307,0.0,0.0,86,-99.99,,,0.00,LWC V2.10 B1813,2013-03-01 04:23:00,
2013-02-28 23:28:00,33.3,29.5,-100.00,West,277,0.0,0.0,86,-99.99,,,0.00,LWC V2.10 B1813,2013-03-01 04:28:00,
2013-02-28 23:33:00,33.3,29.5,-100.00,WNW,284,0.0,0.0,86,-99.99,,,0.00,LWC V2.10 B1813,2013-03-01 04:33:00,
2013-02-28 23:38:00,33.3,29.5,-100.00,WNW,284,0.0,0.0,86,-99.99,,,0.00,LWC V2.10 B1813,2013-03-01 04:38:00,
2013-02-28 23:43:00,33.3,29.5,-100.00,WNW,285,0.0,0.0,86,-99.99,,,0.00,LWC V2.10 B1813,2013-03-01 04:43:00,
2013-02-28 23:48:00,33.3,29.2,-100.00,WNW,285,0.0,0.0,85,-99.99,,,0.00,LWC V2.10 B1813,2013-03-01 04:48:00,
2013-02-28 23:53:00,33.3,29.2,-100.00,WNW,285,0.0,0.0,85,-99.99,,,0.00,LWC V2.10 B1813,2013-03-01 04:53:00,
2013-02-28 23:58:00,33.3,29.2,-100.00,WNW,285,0.0,0.0,85,-99.99,,,0.00,LWC V2.10 B1813,2013-03-01 04:58:00,